Location: Brunsen
(51.8651°N, 9.8610°E)
Time: 09:32:09
(UTC+00:00)

DMSP 5D-2 F11 DEB - Visible Passes

Search period start: 06 October 2024 00:00
Search period end: 16 October 2024 00:00
Orbit: 830 x 887 km, 98.9° (Epoch: 05 October)

Date Brightness Start Highest point End Pass type
(mag) Time Alt. Az. Time Alt. Az. Time Alt. Az.
06 Oct ? 18:29:00 11° SSE 18:34:20 71° ENE 18:39:54 10° NNW visible
06 Oct ? 20:11:22 10° SW 20:15:43 23° W 20:20:03 10° NW visible
07 Oct ? 18:19:35 11° SSE 18:24:52 61° ENE 18:30:20 10° N visible
07 Oct ? 20:01:46 11° SSW 20:06:06 26° W 20:10:44 10° NW visible
08 Oct ? 18:10:10 11° SE 18:15:23 52° ENE 18:20:46 10° N visible
08 Oct ? 19:52:21 14° SSW 19:56:29 31° W 20:01:23 10° NNW visible
09 Oct ? 18:00:45 11° SE 18:05:55 45° ENE 18:11:10 10° N visible
09 Oct ? 19:42:56 16° SSW 19:46:53 36° W 19:51:59 10° NNW visible
10 Oct ? 17:51:19 10° SE 17:56:28 39° ENE 18:01:33 10° N visible
10 Oct ? 19:33:30 18° SSW 19:37:18 42° W 19:42:34 10° NNW visible
11 Oct ? 17:42:03 10° ESE 17:47:01 34° ENE 17:51:56 10° N visible
11 Oct ? 19:24:05 20° SSW 19:27:44 49° W 19:33:06 10° NNW visible
12 Oct ? 17:32:51 10° ESE 17:37:35 30° ENE 17:42:17 10° N visible
12 Oct ? 19:14:38 22° S 19:18:09 58° WSW 19:23:38 10° NNW visible
13 Oct ? 17:23:39 10° ESE 17:28:10 26° ENE 17:32:37 10° N visible
13 Oct ? 19:05:13 24° S 19:08:37 68° WSW 19:14:08 10° NNW visible
13 Oct ? 20:48:20 10° WSW 20:50:30 12° W 20:52:39 10° WNW visible
14 Oct ? 17:14:32 10° ESE 17:18:45 23° NE 17:22:56 10° N visible
14 Oct ? 18:55:46 26° S 18:59:04 79° WSW 19:04:37 10° NNW visible
14 Oct ? 20:37:57 10° WSW 20:40:48 15° W 20:43:48 10° NW visible
15 Oct ? 17:05:27 10° E 17:09:21 20° NE 17:13:12 10° N visible
15 Oct ? 18:46:20 27° SSE 18:49:32 89° ENE 18:55:04 10° NNW visible
15 Oct ? 20:28:31 13° WSW 20:31:08 17° W 20:34:42 10° NW visible
